Weather in Vorobjevo

Russia / Republic of Crimea     45°19′47″N   33°14′54″E
temp.,
°C
wind,
m/s
gust,
m/s
humid.,
%
clouds,
%
prec.,
mm/h
press.,
hPa
HPBL,
m
8 august, mon
mon800:00+24nne48480 0.0 1013133
03:00+24nne511500 0.0 1013194
06:00+23ne510510 0.0 1013175
09:00+31ene69280 0.0 1014786
12:00+35ene78210 0.0 10132769
15:00+35ene88191 0.0 10122868
18:00+34e810190 0.0 10122399
21:00+28ne46260 0.0 101375
9 august, tue
tue900:00+25ne58310 0.0 1013110
03:00+24ne511380 0.0 1013170
06:00+23ne510440 0.0 1013148
09:00+31ene79310 0.0 1013784
12:00+35ene911200 0.0 10122690
15:00+35ene10111891 0.0 10112671
18:00+34ene81318100 0.0 10111996
21:00+28ne5102696 0.0 1011167
10 august, wed
wed1000:00+25nne5113695 0.0 1010182
03:00+25nne71337100 0.0 1010242
06:00+24nne6104673 0.0 1009187
09:00+31ne7113488 0.0 10091229
12:00+35ene11142192 0.0 10082628
15:00+35ene11132016 0.0 10072493
18:00+33ene91121100 0.0 10081892
21:00+28ne593094 0.0 1008149
11 august, thu
thu1100:00+28n71335100 0.0 1007324
03:00+27nne7113559 0.0 1006271
06:00+26ne61248100 0.0 1007322
09:00+29ene5838100 0.1 1008541
12:00+32ne101336100 0.0 10081213
15:00+30ne10124180 0.3 10101193
18:00+30ne693984 2.9 10091045
21:00+26ne594767 2.9 1010173
12 august, fri
fri1200:00+24nne5145127 0.0 1010261
03:00+24nne7145455 0.3 1009375
06:00+24ne91767100 2.4 1009494
09:00+26ne1215594 3.1 1009725
12:00+32ene77440 0.1 10081347
15:00+29ssw566089 0.1 1008686
18:00+28ssw436310 0.3 1009332
21:00+25ssw23810 0.3 101053